Regional Weather Roundup
Issued by NWS

Home | Current Version | Previous Version | Graphics & Text | Print | Product List | Glossary On
Versions: 1 2 3 4 5 6 7 8 9 10 11 12 13 14 15 16 17 18 19 20 21 22 23 24 25 26 27 28 29 30 31 32 33 34 35 36 37 38 39 40 41 42 43 44 45 46 47 48 49 50
000
ASUS45 KSLC 270910
RWRUT

UTAH REGIONAL WEATHER ROUNDUP
NATIONAL WEATHER SERVICE SALT LAKE CITY UT
300 AM MDT WED MAY 27 2015

UTZ001>011-023>025-271000-

NORTHERN UTAH

CITY           SKY/WX    TMP DP  RH WIND       PRES   REMARKS
BRIGHAM CITY   PTCLDY    53  49  87 CALM      30.06S
HILL AFB       CLEAR     52  48  87 E6        30.07S
LOGAN          MOCLDY    46  44  93 CALM      30.06F
OGDEN          CLEAR     53  48  83 S3        30.06R
PROVO AIRPORT  PTCLDY    48  43  81 SE7       30.09S
SALT LAKE CITY PTCLDY    54  47  77 SE8       30.05R
VERNAL         CLOUDY    50  48  93 NW6       30.11S
WENDOVER       CLEAR     54  48  82 CALM      30.03S
HEBER CITY     CLEAR     41  41 100 CALM      30.12R
WEST JORDAN    CLEAR     52  48  87 S9        30.07R

$$

UTZ012>022-026-027-271000-

SOUTHERN/CENTRAL UTAH

CITY           SKY/WX    TMP DP  RH WIND       PRES   REMARKS
BLANDING       PTCLDY    51  45  78 NE3       30.19S
BRYCE CANYON   CLOUDY    42  39  89 N3        30.21S
CEDAR CITY     MOCLDY    48  43  82 CALM      30.09R
DELTA          MOCLDY    50  46  84 E3        30.08F
HANKSVILLE     CLOUDY    59  45  58 CALM      30.09S
MILFORD        LGT RAIN  50  47  89 NE9       30.09S
MOAB/CYNLANDS  MOCLDY    55  46  71 E6        30.07S
PRICE          PTCLDY    45  38  76 NE5       30.12F
ST GEORGE      SUNNY     64  37  36 E8        29.99S

$$

REGIONAL REPORTS     COLORADO/ARIZONA

CITY           SKY/WX    TMP DP  RH WIND       PRES   REMARKS
CRAIG, CO      CLOUDY    50  42  74 CALM      30.13S
GRAND JUNCTION PTCLDY    49  47  93 W3        30.10S
RIFLE          CLOUDY    48  45  89 CALM      30.13S
MONTROSE       MOCLDY    45  43  93 SE7       30.16S
CORTEZ         PTCLDY    43  39  86 NE5       30.15R
PAGE, AZ       PTCLDY    61  45  55 CALM      30.05R
GRAND CANYON   PTCLDY    40  35  83 E3        30.17F
KINGMAN        PTCLDY    62  26  25 VRB3      29.98S
FLAGSTAFF      MOCLDY    44  33  65 CALM      30.19S

$$

REGIONAL REPORTS    NEVADA/IDAHO/WYOMING

CITY           SKY/WX    TMP DP  RH WIND       PRES   REMARKS
LAS VEGAS, NV  CLOUDY    76  33  21 S7        29.84R
ELY            MOCLDY    50  42  74 SW14      30.11S
ELKO           LGT RAIN  51  46  83 N14G20    30.10R
POCATELLO, ID  MOCLDY    50  47  89 N5        30.03S
BURLEY         CLOUDY    52  44  74 S7        29.99S
EVANSTON, WY   MOCLDY    42  40  92 SW5       30.14S
ROCK SPRINGS   CLOUDY    46  42  86 W9        30.11S
KEMMERER       PTCLDY    39  39 100 W9        30.13F WCI  33

$$


USA.gov is the U.S. government's official web portal to all federal, state and local government web resources and services.